Weather History for KLGD - December, 2012

Change the Weather History Date:

Friday, December 7, 2012

  Actual Average Record
Temperature  
Mean Temperature 38 °F -  
Max Temperature 44 °F 37 °F 58 °F (1965)
Min Temperature 33 °F 27 °F -4 °F (2013)
Degree Days  
Heating Degree Days 26    
Moisture  
Dew Point 27 °F    
Average Humidity 65    
Maximum Humidity 81    
Minimum Humidity 49    
Precipitation  
Precipitation 0.04 in - - ()
Sea Level Pressure  
Sea Level Pressure 30.00 in    
Wind  
Wind Speed 6 mph (WSW)    
Max Wind Speed 26 mph    
Max Gust Speed 40 mph    
Visibility 10 miles    
Events      
Averages and records for this station are not official NWS values.
T = Trace of Precipitation, MM = Missing Value Source: NWS Daily Summary

Daily Weather History Graph

Daily Weather History Graph

Search for Another Location

Airport or City:

Trip Planner

Search our weather history database for the weather conditions in past years. The results will help you decide how hot, cold, wet, or windy it might be!

Date:

Astronomy

Dec. 07, 2012 Rise Set
Actual Time 7:18 AM PST 4:09 PM PST
Civil Twilight 6:44 AM PST 4:43 PM PST
Nautical Twilight 6:07 AM PST 5:20 PM PST
Astronomical Twilight 5:31 AM PST 5:56 PM PST
Moon 12:26 AM PST (12/7) 12:22 PM PST (12/7)
Length of Visible Light 9h 58m
Length of Day
8h 51m
Last Quarter, 37% of the Moon is Illuminated
Dec 7
Last Quarter
Dec 13
New
Dec 19
First Quarter
Dec 28
Full
Jan 4
Last Quarter

Hourly Weather History & Observations

Time (PST) Temp. Windchill Dew Point Humidity Pressure Visibility Wind Dir Wind Speed Gust Speed Precip Events Conditions
12:15 AM 33.8 °F 28.6 °F 26.6 °F 75% 30.08 in 10.0 mi ESE 5.8 mph - N/A   Overcast
12:35 AM 33.8 °F - 26.6 °F 75% 30.08 in 9.0 mi Calm Calm - N/A   Mostly Cloudy
12:55 AM 33.8 °F - 26.6 °F 75% 30.09 in 5.0 mi Calm Calm - N/A   Overcast
1:15 AM 33.8 °F - 26.6 °F 75% 30.09 in 7.0 mi Calm Calm - N/A   Overcast
1:35 AM 33.8 °F - 26.6 °F 75% 30.09 in 3.0 mi Calm Calm - N/A   Overcast
1:55 AM 33.8 °F 29.6 °F 26.6 °F 75% 30.09 in 4.0 mi SSE 4.6 mph - N/A   Overcast
2:15 AM 33.8 °F 30.8 °F 26.6 °F 75% 30.09 in 3.0 mi SE 3.5 mph - N/A   Overcast
2:35 AM 33.8 °F 29.6 °F 26.6 °F 75% 30.09 in 7.0 mi SE 4.6 mph - N/A   Overcast
2:55 AM 33.8 °F 28.6 °F 26.6 °F 75% 30.08 in 10.0 mi SSE 5.8 mph - N/A   Mostly Cloudy
3:15 AM 33.8 °F 27.7 °F 28.4 °F 81% 30.08 in 10.0 mi SE 6.9 mph - N/A   Mostly Cloudy
3:35 AM 33.8 °F 25.8 °F 28.4 °F 81% 30.07 in 10.0 mi SE 10.4 mph - N/A   Overcast
3:55 AM 33.8 °F 28.6 °F 28.4 °F 81% 30.07 in 10.0 mi ESE 5.8 mph - N/A   Overcast
4:15 AM 35.6 °F 28.6 °F 28.4 °F 75% 30.07 in 10.0 mi ESE 9.2 mph - N/A   Overcast
4:35 AM 35.6 °F 30.7 °F 28.4 °F 75% 30.06 in 10.0 mi SE 5.8 mph - N/A   Overcast
4:55 AM 35.6 °F - 28.4 °F 75% 30.06 in 10.0 mi Calm Calm - N/A   Overcast
5:15 AM 35.6 °F - 28.4 °F 75% 30.06 in 10.0 mi Calm Calm - N/A   Overcast
5:35 AM 35.6 °F - 28.4 °F 75% 30.06 in 10.0 mi Calm Calm - N/A   Overcast
5:55 AM 35.6 °F 32.8 °F 28.4 °F 75% 30.06 in 10.0 mi NW 3.5 mph - N/A   Overcast
6:15 AM 35.6 °F 32.8 °F 28.4 °F 75% 30.06 in 10.0 mi East 3.5 mph - N/A   Overcast
6:35 AM 33.8 °F 30.8 °F 28.4 °F 81% 30.06 in 10.0 mi South 3.5 mph - N/A   Overcast
6:55 AM 33.8 °F - 28.4 °F 81% 30.06 in 10.0 mi Calm Calm - N/A   Overcast
7:15 AM 33.8 °F - 28.4 °F 81% 30.06 in 10.0 mi Calm Calm - N/A   Overcast
7:35 AM 33.8 °F 29.6 °F 26.6 °F 75% 30.05 in 10.0 mi West 4.6 mph - N/A   Overcast
7:55 AM 33.8 °F - 28.4 °F 81% 30.05 in 10.0 mi Calm Calm - N/A   Overcast
8:15 AM 35.6 °F 29.9 °F 28.4 °F 75% 30.04 in 10.0 mi SE 6.9 mph - N/A   Overcast
8:35 AM 35.6 °F 32.8 °F 28.4 °F 75% 30.04 in 10.0 mi WSW 3.5 mph - N/A   Mostly Cloudy
8:55 AM 35.6 °F 32.8 °F 28.4 °F 75% 30.03 in 10.0 mi West 3.5 mph - N/A   Overcast
9:15 AM 37.4 °F - 30.2 °F 75% 30.03 in 10.0 mi Calm Calm - N/A   Overcast
9:35 AM 37.4 °F 34.9 °F 28.4 °F 70% 30.03 in 10.0 mi SSW 3.5 mph - N/A   Overcast
9:55 AM 37.4 °F 34.9 °F 28.4 °F 70% 30.03 in 10.0 mi South 3.5 mph - N/A   Overcast
10:15 AM 37.4 °F - 28.4 °F 70% 30.03 in 10.0 mi Calm Calm - N/A   Overcast
10:35 AM 39.2 °F 37.0 °F 28.4 °F 65% 30.02 in 10.0 mi East 3.5 mph - N/A   Overcast
10:55 AM 39.2 °F - 28.4 °F 65% 30.01 in 10.0 mi Calm Calm - N/A   Overcast
11:15 AM 39.2 °F - 30.2 °F 70% 30.00 in 10.0 mi Calm Calm - N/A   Overcast
11:35 AM 39.2 °F 34.2 °F 28.4 °F 65% 29.99 in 10.0 mi SE 6.9 mph - N/A   Overcast
11:55 AM 39.2 °F 35.0 °F 28.4 °F 65% 29.98 in 10.0 mi SSE 5.8 mph - N/A   Overcast
12:15 PM 41.0 °F 37.1 °F 28.4 °F 61% 29.97 in 10.0 mi SSE 5.8 mph - N/A   Overcast
12:35 PM 41.0 °F 36.4 °F 28.4 °F 61% 29.96 in 10.0 mi South 6.9 mph - N/A   Overcast
12:55 PM 41.0 °F 35.2 °F 28.4 °F 61% 29.96 in 10.0 mi South 9.2 mph - N/A   Overcast
1:15 PM 41.0 °F 35.8 °F 28.4 °F 61% 29.95 in 10.0 mi SSE 8.1 mph - N/A   Overcast
1:35 PM 42.8 °F 39.3 °F 30.2 °F 61% 29.94 in 10.0 mi WSW 5.8 mph - N/A   Mostly Cloudy
1:55 PM 44.6 °F 38.4 °F 28.4 °F 53% 29.94 in 10.0 mi West 12.7 mph 16.1 mph N/A   Partly Cloudy
2:15 PM 44.6 °F 38.8 °F 26.6 °F 49% 29.93 in 10.0 mi West 11.5 mph 20.7 mph N/A   Scattered Clouds
2:35 PM 44.6 °F 40.2 °F 26.6 °F 49% 29.92 in 10.0 mi WSW 8.1 mph 18.4 mph N/A   Overcast
2:55 PM 44.6 °F 39.2 °F 26.6 °F 49% 29.92 in 10.0 mi SW 10.4 mph 20.7 mph N/A   Overcast
3:15 PM 44.6 °F 38.4 °F 26.6 °F 49% 29.91 in 10.0 mi WSW 12.7 mph 18.4 mph N/A   Overcast
3:35 PM 44.6 °F 38.1 °F 26.6 °F 49% 29.91 in 10.0 mi West 13.8 mph 23.0 mph N/A   Mostly Cloudy
3:55 PM 42.8 °F 36.6 °F 26.6 °F 53% 29.91 in 10.0 mi SW 11.5 mph - N/A   Overcast
4:15 PM 42.8 °F 38.0 °F 26.6 °F 53% 29.91 in 10.0 mi West 8.1 mph 23.0 mph N/A   Mostly Cloudy
4:35 PM 44.6 °F 38.4 °F 26.6 °F 49% 29.90 in 10.0 mi WSW 12.7 mph 27.6 mph N/A   Mostly Cloudy
5:15 PM 42.8 °F 38.0 °F 24.8 °F 49% 29.90 in 10.0 mi West 8.1 mph 17.3 mph N/A   Overcast
5:35 PM 42.8 °F 37.0 °F 24.8 °F 49% 29.91 in 10.0 mi West 10.4 mph 23.0 mph N/A   Overcast
5:55 PM 42.8 °F 38.0 °F 24.8 °F 49% 29.91 in 10.0 mi NW 8.1 mph 17.3 mph N/A   Overcast
6:15 PM 42.8 °F 37.0 °F 26.6 °F 53% 29.90 in 10.0 mi West 10.4 mph 19.6 mph N/A   Mostly Cloudy
6:35 PM 42.8 °F 35.4 °F 26.6 °F 53% 29.90 in 10.0 mi West 15.0 mph 20.7 mph N/A   Overcast
6:55 PM 42.8 °F 36.2 °F 26.6 °F 53% 29.91 in 10.0 mi WNW 12.7 mph 26.5 mph N/A   Overcast
7:15 PM 41.0 °F 32.5 °F 24.8 °F 53% 29.91 in 9.0 mi NNW 17.3 mph 21.9 mph N/A   Overcast
7:55 PM 37.4 °F 25.6 °F 24.8 °F 60% 29.93 in 7.0 mi NW 26.5 mph 40.3 mph 0.01 in   Overcast
8:35 PM 39.2 °F 28.5 °F 23.0 °F 52% 29.95 in 10.0 mi WNW 24.2 mph 34.5 mph 0.02 in   Overcast
8:55 PM 39.2 °F 29.6 °F 23.0 °F 52% 29.96 in 10.0 mi NW 19.6 mph 27.6 mph 0.02 in   Overcast
9:15 PM 37.4 °F 27.2 °F 23.0 °F 56% 29.96 in 10.0 mi NW 19.6 mph 23.0 mph N/A   Overcast
9:35 PM 37.4 °F 29.3 °F 23.0 °F 56% 29.97 in 10.0 mi NW 12.7 mph 20.7 mph N/A   Overcast
9:55 PM 37.4 °F 29.8 °F 23.0 °F 56% 29.97 in 10.0 mi NW 11.5 mph - N/A   Overcast
10:15 PM 37.4 °F 31.4 °F 21.2 °F 52% 29.98 in 10.0 mi NW 8.1 mph - N/A   Overcast
10:35 PM 37.4 °F 30.3 °F 21.2 °F 52% 29.99 in 10.0 mi WNW 10.4 mph - N/A   Overcast
10:55 PM 35.6 °F 26.6 °F 21.2 °F 56% 30.00 in 10.0 mi WNW 13.8 mph 20.7 mph 0.01 in   Overcast
11:15 PM 35.6 °F 28.0 °F 21.2 °F 56% 30.01 in 9.0 mi NW 10.4 mph - N/A   Mostly Cloudy
11:35 PM 35.6 °F 26.2 °F 23.0 °F 60% 30.01 in 10.0 mi WNW 15.0 mph - N/A   Overcast
11:55 PM 33.8 °F 26.4 °F 21.2 °F 60% 30.01 in 10.0 mi WNW 9.2 mph - N/A   Overcast